Regional Weather Roundup
Issued by NWS Wakefield, VA

Home | Current Version | Previous Version | Text Only | Print | Product List | Glossary Off
Versions: 1 2 3 4 5 6 7 8 9 10 11 12 13 14 15 16 17 18 19 20 21 22 23 24 25 26 27 28

000
ASUS41 KAKQ 180710
RWRAKQ

REGIONAL WEATHER ROUNDUP
NATIONAL WEATHER SERVICE WAKEFIELD VA
300 AM EDT FRI APR 18 2014

Note: "fair" indicates few or no clouds below 12,000 feet with no
significant weather and/or obstructions to visibility. * = Denotes
station may not report precipitation (e.g., rain,snow,etc.),
thunder or fog.

VAZ042-051-052>054-056-180800-
NORTHERN VIRGINIA

CITY           SKY/WX    TMP DP  RH WIND       PRES   REMARKS
WASH NATIONAL  MOCLDY    40  31  70 NE6       30.52F
DULLES         PTCLDY    35  31  85 CALM      30.51F
FORT BELVOIR   CLEAR     35  32  89 CALM      30.52F
QUANTICO       PTCLDY    40  32  73 E9        30.53F
FREDERICKSBRG* CLEAR     39  34  81 E3        30.51F
STAFFORD*      CLEAR     35  34  93 CALM      30.55F
WARRENTON      CLEAR     33  33 100 CALM      30.51S
CULPEPER*      PTCLDY    36  36 100 CALM      30.53R
MANASSAS*      CLEAR     36  34  93 CALM      30.52F
LEESBURG*      CLEAR     37  34  87 CALM      30.51F
WINCHESTER     CLEAR     36  32  87 CALM      30.48S
$$

VAZ048-049-060>072-079>083-180800-
CENTRAL AND SOUTH CENTRAL VIRGINIA...AND NORTH CENTRAL NORTH CAROLINA

CITY           SKY/WX    TMP DP  RH WIND       PRES   REMARKS
RICHMOND       PTCLDY    38  32  79 NE5       30.48F
CHESTERFIELD*  NOT AVBL
HANOVER        CLEAR     34  32  92 CALM      30.51F
TAPPAHANNOCK*  CLEAR     33  31  91 CALM      30.49F
CHARLOTTSVILLE MOCLDY    37  32  82 NE6       30.49F
ORANGE*        PTCLDY    34  32  93 CALM      30.52S
LOUISA*        PTCLDY    32  30  93 CALM      30.48F
FARMVILLE*     CLEAR     39  34  81 N3        30.46F
SOUTH HILL*    CLEAR     39  37  93 CALM      30.51S
ROANOKE RAPIDS SUNNY     39  37  93 NE6       30.45F
RALEIGH        MOCLDY    41  35  79 NE6       30.44F
$$

VAZ088>098-180800-
SOUTHEAST VIRGINIA

CITY           SKY/WX    TMP DP  RH WIND       PRES   REMARKS
NORFOLK        CLOUDY    43  37  79 NE12G22   30.45F
VIRGINIA BEACH CLOUDY    44  38  79 NE12      30.44F
NORFOLK NAVAL  CLOUDY    45  36  70 NE12      30.47F
WEST POINT*    PTCLDY    40  34  79 N3        30.50F
NEWPORT NEWS   LGT RAIN  46  36  68 NE10      30.47F
LANGLEY AFB    CLOUDY    43  37  80 NE8       30.48F
FORT EUSTIS    CLOUDY    44  37  78 E8        30.45F
WILLIAMSBURG*  CLOUDY    45  37  76 E5        30.48F
FRANKLIN*      CLOUDY    45  37  76 NE9       30.45F
WAKEFIELD      CLOUDY    42  35  76 NE3       30.46F
$$

VAZ020-022-025-037-045-180800-
WESTERN AND SOUTHWEST VIRGINIA

CITY           SKY/WX    TMP DP  RH WIND       PRES   REMARKS
STAUNTON*      PTCLDY    37  30  77 CALM      30.45F
HOT SPRINGS VA MOCLDY    36  23  60 S3        30.40F
LYNCHBURG      PTCLDY    43  33  68 NE6       30.47F
DANVILLE       MOCLDY    42  36  79 E7        30.46S
MARTINSVILLE   MOCLDY    37  34  88 CALM      30.47R
ROANOKE        PTCLDY    41  32  70 S3        30.46F
BLACKSBURG     MOCLDY    39  34  81 SE7       30.43S
DUBLIN*        MOCLDY    33  27  79 CALM      30.42S
MARION*        MOCLDY    39  23  52 NE9       30.40F
HILLSVILLE*    MOCLDY    39  19  45 CALM      30.42S
RICHLANDS*     PTSUNNY   48  22  34 SE9G16    30.33F
WISE*          MOCLDY    46  18  31 S8        30.33S
ABINGDON*      MOCLDY    47  23  39 E9        30.35F
$$

MDZ021>025-VAZ099-100-180800-
SOUTHERN MARYLAND AND THE DELMARVA PENINSULA

CITY           SKY/WX    TMP DP  RH WIND       PRES   REMARKS
PATUXENT RIVER CLOUDY    40  30  67 E8        30.50F
BAY BRIDGE APT CLOUDY    39  32  75 E5        30.53F
LEONARDTOWN    CLOUDY    37  30  75 NE3       30.51F
DOVER          CLOUDY    40  33  76 NE12      30.48F
GEORGETOWN     CLOUDY    41  32  70 NE9       30.51F
EASTON         PTCLDY    41  33  74 E8        30.55F
CAMBRIDGE      MOCLDY    41  32  70 E5        30.51F
SALISBURY      PTCLDY    40  32  73 NE9       30.50F
OCEAN CITY     CLEAR     40  33  76 NE8       30.48F
WALLOPS ISLAND MOCLDY    38  33  82 N6        30.48F
ACCOMACK*      CLEAR     36  32  87 NE6       30.47F
$$

NCZ012>017-030>032-180800-
EASTERN NORTH CAROLINA

CITY           SKY/WX    TMP DP  RH WIND       PRES   REMARKS
ELIZABETH CITY CLOUDY    45  40  82 N16G24    30.43F
AHOSKIE*       PTCLDY    41  36  82 N6        30.45F
EDENTON*       CLOUDY    44  39  84 NE8       30.42F
CURRITUCK*     CLOUDY    45  39  80 N13G20    30.43F
KILL DEVIL HLS CLOUDY    46  43  90 N10G18    30.39F
MANTEO         CLOUDY    46  44  91 NE15G25   30.40F
CAPE HATTERAS  CLOUDY    49  47  93 NE15G24   30.35F
GOLDSBORO      CLEAR     42  40  93 NE6       30.40F
WASHINGTON     MOCLDY    43  38  85 NE9       30.42F
GREENVILLE     PTCLDY    39  37  93 N5        30.42F
NEW BERN       CLOUDY    47  41  80 NE12      30.41F
WILMINGTON     MOCLDY    47  40  76 N10       30.37F
$$

VAZ048-180800-
ELSEWHERE

CITY           SKY/WX    TMP DP  RH WIND       PRES   REMARKS
HARRISBURG PA  PTCLDY    37  28  70 SE8       30.51F
BALTIMORE      MOCLDY    39  30  70 E12       30.51F
ANNAPOLIS      CLOUDY    41  32  70 E9        30.52F
ANDREWS AFB    MOCLDY    37  30  78 E6        30.50F
WILMINGTON DE  CLOUDY    39  29  67 NE10      30.55F
PHILADELPHIA   CLOUDY    39  28  64 E10       30.56F
WILDWOOD NJ*   CLOUDY    39  30  70 NE10      30.53F
ATLANTIC CITY  CLOUDY    39  31  72 E9        30.53F
HENDERSON NC   PTCLDY    39  36  89 NE6       30.44F
GREENSBORO     MOCLDY    43  37  79 E7        30.42R
ROCKY MOUNT      N/A    N/A N/A N/A MISG      30.44F
FAYETTEVILLE   PTCLDY    47  39  74 NE8       30.41R
CHARLOTTE      CLOUDY    50  36  58 E9        30.37F
$$

VAZ100-180800-
MARINE

STATION/POSITION TIME  TEMP    WIND        PRES    WAVE   SWELL
                       AIR SEA DIR/SP/G            HT/PER HT/PER
                 (UTC) (F)     (DEG/KT/KT) (MB)    (FT/S) (FT/S)
44066 TX TWR #4  0700   40 44   40/ 16/ 17 1033.5S  10/ 8   8/ 8
CAPE MAY NJ      0700   40 52   80/  5/  9 1033.3F
LEWES DE         0700   41 48   70/ 12/ 16 1032.8F
15NM E FENWICK I 0700   43 45              1032.3F   8/10
OCEAN-CITY-INLET 0700   41 45   40/  7/ 12 1032.1F
WACHAPREAGUE VA  0700   37 52  360/  5/  7 1031.7F
THOMAS POINT MD  0700   39 51   60/ 10/ 12 1033.9F
COVE POINT MD    0700   39      60/ 10/ 11 1033.3R
SOLOMONS ISLAND  0700      51                N/A
BISHOPS HEAD MD  0700   40 54   60/ 11/ 16 1032.6S
PINEY POINT MD   0700           60/  5/  7   N/A
POTOMAC MD       0600   42      80/ 12/ 14 1032.3F
CAMBRIDGE MD     0700   41 55   50/ 12/ 14 1032.8F
LEWISETTA VA     0700   42 53   80/ 11/ 13 1032.5S
RAPPAHANNOCK LGT 0700           40/ 15/ 18 1032.4F
STINGRAY PT      0700   43      60/ 12/ 16 1032.2
YORK RVR RNG VA  0700   43      70/ 15/ 18 1031.3F
YORKTOWN VA      0700   44 54   60/ 14/ 17 1031.8F
JAMESTOWN VA     0700   43      90/  8/ 12   N/A
DOMINION TERM VA 0700   44      40/  6/  9 1031.8F
KIPTOPEKE VA     0700      52   50/  7/ 10   N/A
CHES BAY BRIDGE  0700   44 49   30/ 15/ 17 1031.2F
CAPE HENRY VA    0700   43      40/ 16/ 18   N/A
CHESAPEAKE LGHT  0600   44      30/ 17/ 19 1032.2F
WILLOUBY STN VA  0700   43      50/ 10/ 12 1030.7F
S CRANEY ISL VA  0700          360/  8/ 15 1031.7F
CAPE HENRY BUOY  0700      47                N/A     7/11   2/11
1ST LANDING BUOY 0700      45                N/A     7/10   7/10
64NM E OF VA BCH 0700   49 51   20/ 19/ 21 1028.7F  10/ 9   7/ 9
DUCK PIER NC     0700   46 51   10/ 18/ 20 1028.5F
44100 DUCK FRF   0700      48                N/A     8/ 9   3/11
44056 DUCK FRF   0700      51                N/A     7/ 9   3/11
OREGON INLET NC  0700   46 51  360/ 18/ 22 1028.7F
HATTERAS NC      0700   51 56   20/ 12/ 21 1028.0S
CAPE LOOKOUT NC  0600   50      20/ 18/ 22 1028.1F
FRYING PAN SHLS  0700   58 64   50/ 19/ 25 1026.4R   8/ 9   5/ 9
$$



USA.gov is the U.S. government's official web portal to all federal, state and local government web resources and services.